Content
SEND FEEDBACK

Daily
Averages
Monthly
Summary
United States of America

BERKELEY, MISSOURI


Home > North America > United States > Missouri
Elevation: 564 feet     Latitude: 38 45N     Longitude: 090 22W

WEATHER
 
SELECT A DAY
Number of Records: 203,542;   Date Range: 1/1/95 - 8/30/14
 
SHARE

PRINT THIS DATA

[ ← Previous Day ]
WEATHER ALMANAC - JANUARY 8, 2013
[ Next Day → ]
[ °C ]   °F
Weather ElementAverageHighLow
Temperature43.3 °F54 °F (1:51 pm)28.9 °F (4:51 am)
Dewpoint26.1 °F34 °F (11:51 pm)21 °F (4:51 am)
Humidity52.9 %76 % (6:51 am)30 % (1:51 pm)
Barometer30.17 in30.24 in (8:51 am)30.12 in (2:51 pm)
Wind Speed6.5 mph16.1 mph (3:51 pm)
Weather ElementAverage
Visibility9.7 mi
Wind DirectionESE (126.5 °)

Weather ElementTotal
Precipitation---
Heating Degree Days23.6 (Base 65)
Averaged from 23 records on January 8, 2013
WEATHER CONDITIONS BREAKOUT
WIND DIRECTION BREAKOUT
WEATHER BY HOUR - JANUARY 8, 2013
[ °C ]   °F
Local TimeTemperatureDewpointHumidityBarometerVisibilityWind DirectionWind SpeedGust SpeedPrecipitationEventsConditions
1:51 AM34.0 °F23.0 °F64 %30.18 in10.0 miSSE (160°)3.5 mphOvercast
2:51 AM30.9 °F21.9 °F69 %30.19 in10.0 miCalmMostly Cloudy
3:51 AM30.9 °F21.9 °F69 %30.19 in10.0 miCalmScattered Clouds
4:51 AM28.9 °F21.0 °F72 %30.20 in9.0 miCalmScattered Clouds
5:51 AM28.9 °F21.9 °F75 %30.21 in9.0 miCalmMostly Cloudy
6:51 AM30.9 °F24.1 °F76 %30.21 in9.0 miESE (120°)3.5 mphMostly Cloudy
7:51 AM33.1 °F24.1 °F70 %30.22 in8.0 miSSE (160°)3.5 mphMostly Cloudy
8:51 AM37.0 °F25.0 °F62 %30.24 in8.0 miSouth (170°)5.8 mphMostly Cloudy
9:51 AM42.8 °F24.8 °F49 %30.20 in9.0 miVariable5.8 mphMostly Cloudy
10:51 AM46.9 °F25.0 °F42 %30.20 in10.0 miSSE (160°)6.9 mphScattered Clouds
11:51 AM50.0 °F23.0 °F35 %30.17 in10.0 miSouth (170°)6.9 mphScattered Clouds
12:51 PM52.0 °F24.1 °F34 %30.15 in10.0 miSSE (160°)6.9 mphScattered Clouds
1:51 PM54.0 °F23.0 °F30 %30.13 in10.0 miSSE (150°)8.1 mphScattered Clouds
2:51 PM54.0 °F25.0 °F33 %30.12 in10.0 miSE (140°)8.1 mphScattered Clouds
3:51 PM52.0 °F28.0 °F40 %30.12 in10.0 miSE (140°)16.1 mphScattered Clouds
4:51 PM48.0 °F30.0 °F50 %30.13 in10.0 miSE (130°)11.5 mphScattered Clouds
5:51 PM48.9 °F28.9 °F46 %30.13 in10.0 miSE (140°)12.7 mphMostly Cloudy
6:51 PM48.9 °F28.0 °F44 %30.14 in10.0 miSSE (160°)10.4 mphMostly Cloudy
7:51 PM48.0 °F28.9 °F48 %30.15 in10.0 miSouth (170°)10.4 mphMostly Cloudy
8:51 PM48.9 °F30.0 °F48 %30.15 in10.0 miSouth (170°)6.9 mphMostly Cloudy
9:51 PM46.9 °F30.9 °F54 %30.16 in10.0 miSouth (180°)6.9 mphMostly Cloudy
10:51 PM50.0 °F33.1 °F52 %30.15 in10.0 miSSW (210°)8.1 mphMostly Cloudy
11:51 PM50.0 °F34.0 °F54 %30.18 in10.0 miSW (220°)8.1 mphOvercast
Hourly data recorded from KSTL, located miles away from Berkeley, Missouri







STORIES FROM OUR PARTNERS